• In Czech Republic
  • List of Countries
  • For 7 days
  • Water Temperature
  • Satellite Maps
  • Weather Map
  • Weather Widgets
  • user-avatar
    Login

    Hourly Weather Ziolkowo

    Today, 17 July, Tuesday

    Time Temperature Precipitation Wind Pressure Humidity
    00:00 +18°C° 0.1 mm 2 mps 741 mmHg 95%
    01:00 +18°C° 0.1 mm 2 mps 741 mmHg 95%
    02:00 +18°C° 0 mm 2 mps 740 mmHg 96%
    03:00 +18°C° 0.7 mm 2 mps 740 mmHg 96%
    04:00 +18°C° 0.7 mm 2 mps 739 mmHg 97%
    05:00 +18°C° 0.7 mm 2 mps 739 mmHg 97%
    06:00 +19°C° 0.5 mm 3 mps 739 mmHg 96%
    07:00 +19°C° 0.5 mm 3 mps 739 mmHg 96%
    08:00 +20°C° 0.5 mm 3 mps 739 mmHg 95%
    09:00 +21°C° 1 mm 3 mps 739 mmHg 93%
    10:00 +22°C° 1 mm 3 mps 739 mmHg 91%
    11:00 +24°C° 1 mm 3 mps 738 mmHg 88%
    12:00 +24°C° 1.3 mm 3 mps 738 mmHg 89%
    13:00 +22°C° 1.3 mm 4 mps 738 mmHg 90%
    14:00 +22°C° 1.3 mm 4 mps 738 mmHg 91%
    15:00 +23°C° 0.6 mm 4 mps 738 mmHg 88%
    16:00 +25°C° 0.6 mm 5 mps 738 mmHg 85%
    17:00 +26°C° 0.6 mm 5 mps 738 mmHg 82%
    18:00 +25°C° 0.6 mm 5 mps 738 mmHg 84%
    19:00 +23°C° 0.6 mm 5 mps 738 mmHg 86%
    20:00 +23°C° 0.6 mm 5 mps 738 mmHg 89%
    21:00 +22°C° 0.2 mm 4 mps 738 mmHg 90%
    22:00 +21°C° 0.2 mm 4 mps 738 mmHg 92%
    23:00 +21°C° 0.2 mm 3 mps 738 mmHg 93%

    Tomorrow, 18 July, Wednesday

    Time Temperature Precipitation Wind Pressure Humidity
    00:00 +20°C° 0 mm 3 mps 738 mmHg 94%
    01:00 +20°C° 0 mm 3 mps 738 mmHg 95%
    02:00 +19°C° 0 mm 3 mps 738 mmHg 95%
    03:00 +19°C° 0 mm 3 mps 738 mmHg 96%
    04:00 +19°C° 0 mm 3 mps 739 mmHg 97%
    05:00 +19°C° 0 mm 3 mps 739 mmHg 97%
    06:00 +20°C° 0 mm 3 mps 739 mmHg 94%
    07:00 +21°C° 0 mm 3 mps 739 mmHg 91%
    08:00 +23°C° 0 mm 4 mps 739 mmHg 88%
    09:00 +25°C° 0.2 mm 4 mps 739 mmHg 83%
    10:00 +26°C° 0.2 mm 4 mps 739 mmHg 78%
    11:00 +27°C° 0.2 mm 5 mps 739 mmHg 73%
    12:00 +28°C° 0.4 mm 5 mps 739 mmHg 72%
    13:00 +28°C° 0.4 mm 5 mps 739 mmHg 70%
    14:00 +28°C° 0.4 mm 5 mps 739 mmHg 68%
    15:00 +28°C° 0.3 mm 4 mps 739 mmHg 69%
    16:00 +28°C° 0.3 mm 4 mps 739 mmHg 70%
    17:00 +28°C° 0.3 mm 4 mps 739 mmHg 70%
    18:00 +27°C° 0.2 mm 4 mps 739 mmHg 74%
    19:00 +26°C° 0.2 mm 4 mps 739 mmHg 78%
    20:00 +24°C° 0.2 mm 3 mps 739 mmHg 82%
    21:00 +22°C° 0 mm 3 mps 739 mmHg 85%
    22:00 +21°C° 0 mm 3 mps 740 mmHg 88%
    23:00 +20°C° 0 mm 3 mps 740 mmHg 92%

    Day after tomorrow, 19 July, Thursday

    Time Temperature Precipitation Wind Pressure Humidity
    00:00 +19°C° 0 mm 3 mps 740 mmHg 92%
    01:00 +19°C° 0 mm 3 mps 740 mmHg 93%
    02:00 +18°C° 0 mm 3 mps 740 mmHg 94%
    03:00 +18°C° 0 mm 3 mps 740 mmHg 94%
    04:00 +17°C° 0 mm 3 mps 740 mmHg 95%
    05:00 +17°C° 0 mm 3 mps 740 mmHg 95%
    06:00 +18°C° 0 mm 3 mps 740 mmHg 89%
    07:00 +20°C° 0 mm 3 mps 741 mmHg 84%
    08:00 +21°C° 0 mm 4 mps 741 mmHg 79%
    09:00 +23°C° 0.2 mm 4 mps 741 mmHg 75%
    10:00 +25°C° 0.2 mm 5 mps 741 mmHg 71%
    11:00 +26°C° 0.2 mm 5 mps 741 mmHg 67%
    12:00 +26°C° 0.5 mm 5 mps 741 mmHg 68%
    13:00 +26°C° 0.5 mm 5 mps 741 mmHg 70%
    14:00 +26°C° 0.5 mm 5 mps 741 mmHg 71%
    15:00 +26°C° 0.6 mm 5 mps 741 mmHg 74%
    16:00 +26°C° 0.6 mm 5 mps 741 mmHg 76%
    17:00 +25°C° 0.6 mm 5 mps 741 mmHg 79%
    18:00 +23°C° 0.4 mm 4 mps 741 mmHg 83%
    19:00 +22°C° 0.4 mm 4 mps 741 mmHg 87%
    20:00 +21°C° 0.4 mm 4 mps 741 mmHg 91%
    21:00 +21°C° 0.2 mm 3 mps 741 mmHg 92%
    22:00 +20°C° 0.2 mm 3 mps 741 mmHg 94%
    23:00 +19°C° 0.2 mm 3 mps 741 mmHg 95%

    20 July, Friday

    Time Temperature Precipitation Wind Pressure Humidity
    00:00 +19°C° 0 mm 3 mps 741 mmHg 96%
    01:00 +18°C° 0 mm 3 mps 741 mmHg 96%
    02:00 +18°C° 0 mm 3 mps 741 mmHg 97%
    03:00 +18°C° 0 mm 3 mps 741 mmHg 97%
    04:00 +18°C° 0 mm 3 mps 741 mmHg 97%
    05:00 +17°C° 0 mm 3 mps 741 mmHg 97%
    06:00 +19°C° 0 mm 3 mps 741 mmHg 95%
    07:00 +20°C° 0 mm 3 mps 741 mmHg 92%
    08:00 +21°C° 0 mm 4 mps 741 mmHg 90%
    09:00 +22°C° 0.1 mm 4 mps 741 mmHg 85%
    10:00 +23°C° 0.1 mm 4 mps 741 mmHg 80%
    11:00 +26°C° 0.1 mm 4 mps 741 mmHg 75%
    12:00 +26°C° 0.7 mm 4 mps 741 mmHg 75%
    13:00 +26°C° 0.7 mm 4 mps 741 mmHg 75%
    14:00 +27°C° 0.7 mm 4 mps 740 mmHg 75%
    15:00 +27°C° 0.8 mm 5 mps 741 mmHg 77%
    16:00 +26°C° 0.8 mm 5 mps 741 mmHg 79%
    17:00 +26°C° 0.8 mm 5 mps 741 mmHg 81%
    18:00 +25°C° 0.4 mm 5 mps 741 mmHg 83%
    19:00 +23°C° 0.4 mm 4 mps 741 mmHg 86%
    20:00 +22°C° 0.4 mm 4 mps 741 mmHg 89%
    21:00 +21°C° 0 mm 4 mps 741 mmHg 90%
    22:00 +20°C° 0 mm 4 mps 741 mmHg 92%
    23:00 +19°C° 0 mm 4 mps 741 mmHg 94%

    21 July, Saturday

    Time Temperature Precipitation Wind Pressure Humidity
    00:00 +18°C° 0 mm 4 mps 741 mmHg 94%
    01:00 +18°C° 0 mm 4 mps 741 mmHg 95%
    02:00 +17°C° 0 mm 4 mps 741 mmHg 96%
    03:00 +17°C° 0 mm 4 mps 741 mmHg 96%
    04:00 +17°C° 0 mm 3 mps 741 mmHg 96%
    05:00 +17°C° 0 mm 3 mps 741 mmHg 96%
    06:00 +18°C° 0 mm 3 mps 741 mmHg 92%
    07:00 +19°C° 0 mm 3 mps 741 mmHg 88%
    08:00 +21°C° 0 mm 3 mps 741 mmHg 84%
    09:00 +22°C° 0.1 mm 4 mps 741 mmHg 80%
    10:00 +25°C° 0.1 mm 4 mps 741 mmHg 75%
    11:00 +26°C° 0.1 mm 4 mps 741 mmHg 70%
    12:00 +26°C° 0.6 mm 4 mps 741 mmHg 70%
    13:00 +27°C° 0.6 mm 5 mps 741 mmHg 69%
    14:00 +27°C° 0.6 mm 5 mps 741 mmHg 68%
    15:00 +27°C° 0.2 mm 5 mps 741 mmHg 69%
    16:00 +27°C° 0.2 mm 5 mps 741 mmHg 69%
    17:00 +26°C° 0.2 mm 5 mps 741 mmHg 70%
    18:00 +25°C° 0 mm 5 mps 741 mmHg 74%
    19:00 +22°C° 0 mm 5 mps 741 mmHg 78%
    20:00 +21°C° 0 mm 4 mps 741 mmHg 82%
    21:00 +20°C° 0 mm 4 mps 741 mmHg 85%
    22:00 +19°C° 0 mm 4 mps 741 mmHg 87%
    23:00 +18°C° 0 mm 4 mps 741 mmHg 89%

    22 July, Sunday

    Time Temperature Precipitation Wind Pressure Humidity
    00:00 +17°C° 0 mm 4 mps 741 mmHg 90%
    01:00 +17°C° 0 mm 4 mps 742 mmHg 90%
    02:00 +15°C° 0 mm 4 mps 742 mmHg 90%
    03:00 +15°C° 0 mm 4 mps 742 mmHg 90%
    04:00 +15°C° 0 mm 4 mps 742 mmHg 91%
    05:00 +15°C° 0 mm 4 mps 741 mmHg 91%
    06:00 +17°C° 0 mm 4 mps 742 mmHg 87%
    07:00 +18°C° 0 mm 4 mps 742 mmHg 84%
    08:00 +20°C° 0 mm 4 mps 742 mmHg 80%
    09:00 +21°C° 0 mm 4 mps 742 mmHg 74%
    10:00 +22°C° 0 mm 4 mps 742 mmHg 69%
    11:00 +25°C° 0 mm 5 mps 742 mmHg 64%
    12:00 +25°C° 0 mm 5 mps 742 mmHg 63%
    13:00 +25°C° 0 mm 5 mps 742 mmHg 63%
    14:00 +26°C° 0 mm 6 mps 742 mmHg 62%
    15:00 +24°C° 0 mm 6 mps 742 mmHg 63%
    16:00 +24°C° 0 mm 6 mps 742 mmHg 64%
    17:00 +23°C° 0 mm 6 mps 742 mmHg 65%
    18:00 +21°C° 0 mm 6 mps 742 mmHg 70%
    19:00 +20°C° 0 mm 5 mps 742 mmHg 75%
    20:00 +18°C° 0 mm 4 mps 742 mmHg 79%
    21:00 +17°C° 0 mm 4 mps 743 mmHg 84%
    22:00 +15°C° 0 mm 4 mps 743 mmHg 88%
    23:00 +14°C° 0 mm 4 mps 743 mmHg 92%
    Show more